Change the Weather History Date:

Friday, March 1, 2013

  Actual Average (KJLN) Record (KJLN)
Temperature  
Mean Temperature 28 °F 44 °F  
Max Temperature 30 °F 55 °F 87 °F (2006)
Min Temperature 26 °F 33 °F 5 °F (1962)
Degree Days  
Heating Degree Days 37 21  
Month to date heating degree days 21  
Since 1 July heating degree days 3275  
Cooling Degree Days 0 0  
Month to date cooling degree days 0  
Year to date cooling degree days 1  
Moisture  
Dew Point 23 °F    
Average Humidity 80    
Maximum Humidity 93    
Minimum Humidity 69    
Precipitation  
Precipitation 0.00 in 0.10 in 1.83 in (1948)
Month to date precipitation 0.10  
Year to date precipitation 4.45  
Sea Level Pressure  
Sea Level Pressure 30.18 in    
Wind  
Wind Speed 9 mph (NW)    
Max Wind Speed 15 mph    
Max Gust Speed 21 mph    
Visibility 8 miles    
Events Rain , Snow    
T = Trace of Precipitation, MM = Missing Value Source: NWS Daily Summary

Daily Weather History Graph

Daily Weather History Graph

Search for Another Location

Airport or City:

Trip Planner

Search our weather history database for the weather conditions in past years. The results will help you decide how hot, cold, wet, or windy it might be!

Date:

Astronomy

Mar. 01, 2013 Rise Set
Actual Time 6:46 AM CST 6:10 PM CST
Civil Twilight 6:20 AM CST 6:36 PM CST
Nautical Twilight 5:50 AM CST 7:06 PM CST
Astronomical Twilight 5:20 AM CST 7:36 PM CST
Moon 10:36 PM CST (3/1) 8:41 AM CST (3/1)
Length of Visible Light 12h 16m
Length of Day
11h 24m
Waning Gibbous, 83% of the Moon is Illuminated
Mar 1
Waning Gibbous
Mar 4
Last Quarter
Mar 11
New
Mar 19
First Quarter
Mar 27
Full

Hourly Weather History & Observations

Time (CST) Temp. Windchill Dew Point Humidity Pressure Visibility Wind Dir Wind Speed Gust Speed Precip Events Conditions
12:15 AM 30.2 °F 24.3 °F 24.8 °F 80% 30.15 in 10.0 mi NW 5.8 mph - N/A   Overcast
12:35 AM 30.2 °F 23.4 °F 24.8 °F 80% 30.15 in 10.0 mi NW 6.9 mph - N/A   Overcast
12:55 AM 30.2 °F 23.4 °F 24.8 °F 80% 30.15 in 10.0 mi NW 6.9 mph - N/A   Overcast
1:15 AM 30.2 °F 23.4 °F 24.8 °F 80% 30.15 in 10.0 mi NW 6.9 mph - N/A   Overcast
1:35 AM 30.2 °F 24.3 °F 24.8 °F 80% 30.15 in 10.0 mi NNW 5.8 mph - N/A   Overcast
1:55 AM 30.2 °F 24.3 °F 24.8 °F 80% 30.15 in 10.0 mi NW 5.8 mph - N/A   Overcast
2:15 AM 30.2 °F 22.6 °F 24.8 °F 80% 30.14 in 10.0 mi NW 8.1 mph - N/A   Overcast
2:55 AM 30.2 °F 24.3 °F 24.8 °F 80% 30.14 in 10.0 mi NW 5.8 mph - N/A   Overcast
3:15 AM 30.2 °F 24.3 °F 24.8 °F 80% 30.13 in 10.0 mi NW 5.8 mph - N/A   Overcast
3:35 AM 30.2 °F 23.4 °F 24.8 °F 80% 30.13 in 10.0 mi NW 6.9 mph - N/A   Overcast
4:15 AM 30.2 °F 26.7 °F 24.8 °F 80% 30.13 in 10.0 mi NW 3.5 mph - N/A   Overcast
4:35 AM 30.2 °F 25.4 °F 24.8 °F 80% 30.14 in 10.0 mi NW 4.6 mph - N/A   Overcast
5:15 AM 30.2 °F 23.4 °F 23.0 °F 75% 30.14 in 10.0 mi NW 6.9 mph - N/A   Overcast
5:35 AM 30.2 °F 24.3 °F 23.0 °F 75% 30.14 in 10.0 mi NW 5.8 mph - N/A   Overcast
6:15 AM 30.2 °F 23.4 °F 24.8 °F 80% 30.15 in 10.0 mi WNW 6.9 mph - N/A   Overcast
6:35 AM 30.2 °F 22.6 °F 24.8 °F 80% 30.14 in 10.0 mi NW 8.1 mph - N/A   Overcast
6:55 AM 30.2 °F 22.6 °F 24.8 °F 80% 30.15 in 10.0 mi NW 8.1 mph - N/A   Overcast
7:15 AM 30.2 °F 20.8 °F 24.8 °F 80% 30.15 in 10.0 mi NW 11.5 mph - N/A   Overcast
7:35 AM 28.4 °F 17.5 °F 23.0 °F 80% 30.16 in 10.0 mi NW 13.8 mph 17.3 mph N/A   Overcast
7:55 AM 28.4 °F 18.0 °F 23.0 °F 80% 30.16 in 10.0 mi NW 12.7 mph - N/A   Overcast
8:15 AM 28.4 °F 17.5 °F 23.0 °F 80% 30.17 in 10.0 mi NW 13.8 mph - N/A   Overcast
8:35 AM 28.4 °F 17.0 °F 23.0 °F 80% 30.17 in 10.0 mi NW 15.0 mph - N/A   Overcast
8:55 AM 28.4 °F 18.0 °F 23.0 °F 80% 30.18 in 7.0 mi NNW 12.7 mph - N/A Rain Light Freezing Rain
9:15 AM 28.4 °F 17.0 °F 23.0 °F 80% 30.18 in 3.0 mi NW 15.0 mph - N/A Snow Light Snow
9:35 AM 28.4 °F 19.1 °F 23.0 °F 80% 30.18 in 5.0 mi NW 10.4 mph - N/A Snow Light Snow
9:55 AM 28.4 °F 18.0 °F 23.0 °F 80% 30.18 in 7.0 mi NW 12.7 mph - N/A   Light Freezing Rain
10:15 AM 28.4 °F 17.0 °F 23.0 °F 80% 30.18 in 10.0 mi NW 15.0 mph - N/A   Light Freezing Rain
10:35 AM 28.4 °F 18.0 °F 23.0 °F 80% 30.19 in 10.0 mi NW 12.7 mph - N/A   Light Freezing Rain
11:15 AM 28.4 °F 19.1 °F 23.0 °F 80% 30.20 in 10.0 mi NW 10.4 mph - N/A   Overcast
11:35 AM 28.4 °F 18.5 °F 23.0 °F 80% 30.20 in 10.0 mi NW 11.5 mph 16.1 mph N/A Snow Light Snow
11:55 AM 28.4 °F 19.1 °F 23.0 °F 80% 30.20 in 10.0 mi NW 10.4 mph - N/A   Overcast
12:15 PM 28.4 °F 19.7 °F 23.0 °F 80% 30.19 in 10.0 mi NW 9.2 mph - N/A   Overcast
12:35 PM 28.4 °F 18.5 °F 23.0 °F 80% 30.19 in 10.0 mi NW 11.5 mph - N/A Snow Light Snow
12:55 PM 28.4 °F 18.0 °F 21.2 °F 74% 30.18 in 10.0 mi NNW 12.7 mph - N/A   Overcast
1:15 PM 30.2 °F 20.2 °F 21.2 °F 69% 30.18 in 10.0 mi NW 12.7 mph - N/A   Overcast
1:35 PM 28.4 °F 18.5 °F 23.0 °F 80% 30.18 in 7.0 mi NW 11.5 mph - N/A Snow Light Snow
1:55 PM 30.2 °F 20.2 °F 21.2 °F 69% 30.17 in 10.0 mi NW 12.7 mph 17.3 mph N/A   Overcast
2:15 PM 30.2 °F 20.2 °F 21.2 °F 69% 30.17 in 10.0 mi NW 12.7 mph - N/A   Overcast
2:35 PM 28.4 °F 17.5 °F 21.2 °F 74% 30.17 in 10.0 mi NW 13.8 mph - N/A Rain Light Freezing Rain
2:55 PM 30.2 °F 19.3 °F 21.2 °F 69% 30.17 in 10.0 mi NW 15.0 mph - N/A   Overcast
3:15 PM 28.4 °F 18.5 °F 21.2 °F 74% 30.17 in 10.0 mi NW 11.5 mph 20.7 mph N/A   Overcast
3:35 PM 28.4 °F 18.5 °F 21.2 °F 74% 30.18 in 7.0 mi NW 11.5 mph - N/A Snow Light Snow
3:55 PM 28.4 °F 18.5 °F 23.0 °F 80% 30.18 in 7.0 mi NW 11.5 mph 17.3 mph N/A Snow Light Snow
4:15 PM 28.4 °F 19.7 °F 23.0 °F 80% 30.18 in 10.0 mi NW 9.2 mph - N/A Snow Light Snow
4:35 PM 28.4 °F 18.0 °F 23.0 °F 80% 30.19 in 5.0 mi NW 12.7 mph - N/A Snow Light Snow
4:55 PM 28.4 °F 18.0 °F 23.0 °F 80% 30.19 in 4.0 mi NW 12.7 mph 18.4 mph N/A Snow Light Snow
5:15 PM 28.4 °F 18.5 °F 23.0 °F 80% 30.19 in 10.0 mi NW 11.5 mph - N/A Rain Light Freezing Rain
5:35 PM 28.4 °F 20.4 °F 23.0 °F 80% 30.19 in 10.0 mi NW 8.1 mph - N/A Snow Light Snow
5:55 PM 28.4 °F 20.4 °F 23.0 °F 80% 30.20 in 10.0 mi NNW 8.1 mph - N/A Rain Light Freezing Rain
6:15 PM 28.4 °F 20.4 °F 23.0 °F 80% 30.20 in 10.0 mi NW 8.1 mph - N/A Snow Light Snow
6:35 PM 28.4 °F 18.0 °F 23.0 °F 80% 30.21 in 7.0 mi NW 12.7 mph 17.3 mph N/A Snow Light Snow
6:55 PM 26.6 °F 16.8 °F 23.0 °F 86% 30.21 in 10.0 mi NW 10.4 mph - N/A Snow Light Snow
7:15 PM 26.6 °F 18.2 °F 23.0 °F 86% 30.21 in 10.0 mi NNW 8.1 mph - N/A Snow Light Snow
7:35 PM 26.6 °F 19.1 °F 23.0 °F 86% 30.21 in 7.0 mi NW 6.9 mph - N/A Snow Light Snow
7:55 PM 26.6 °F 19.1 °F 23.0 °F 86% 30.22 in 5.0 mi NW 6.9 mph - N/A Snow Light Snow
8:15 PM 26.6 °F 17.5 °F 23.0 °F 86% 30.22 in 4.0 mi NNW 9.2 mph - N/A Snow Light Snow
8:35 PM 26.6 °F 18.2 °F 23.0 °F 86% 30.23 in 7.0 mi NW 8.1 mph - N/A Snow Light Snow
8:55 PM 26.6 °F 17.5 °F 23.0 °F 86% 30.23 in 7.0 mi NW 9.2 mph - N/A Snow Light Snow
9:15 PM 26.6 °F 17.5 °F 23.0 °F 86% 30.23 in 7.0 mi NW 9.2 mph - N/A Snow Light Snow
9:35 PM 26.6 °F 16.2 °F 23.0 °F 86% 30.23 in 10.0 mi NW 11.5 mph - N/A   Light Freezing Rain
9:55 PM 26.6 °F 16.8 °F 23.0 °F 86% 30.23 in 7.0 mi NNW 10.4 mph - N/A Snow Light Snow
10:15 PM 26.6 °F 17.5 °F 23.0 °F 86% 30.24 in 5.0 mi NNW 9.2 mph - N/A Snow Light Snow
10:35 PM 26.6 °F 17.5 °F 23.0 °F 86% 30.23 in 3.0 mi NNW 9.2 mph - N/A Snow Light Snow
10:55 PM 26.6 °F 18.2 °F 24.8 °F 93% 30.23 in 4.0 mi NNW 8.1 mph - N/A Snow Light Snow
11:15 PM 26.6 °F 18.2 °F 23.0 °F 86% 30.23 in 5.0 mi NNW 8.1 mph - N/A Snow Light Snow
11:35 PM 26.6 °F 17.5 °F 23.0 °F 86% 30.23 in 5.0 mi NNW 9.2 mph - N/A Snow Light Snow
11:55 PM 26.6 °F 17.5 °F 23.0 °F 86% 30.23 in 7.0 mi NNW 9.2 mph - N/A Snow Light Snow